www.pogodaiklimat.ru

Погода и климат >> Архив погоды >> Россия >> Ненецкий АО >> Бугрино


ПОГОДА в Бугрино

  • Прогноз погоды в Бугрино
  • Монитор погоды в Бугрино

АРХИВ ПОГОДЫ в Бугрино

Время (UTC), дата Ветер
(напр.,м/с)
 
Видим.   Явления Облачность Т
(С)
Тd
(С)
f
(%)
Тe
(С)
Тes
(С)
Комфортность P
(гПа)
Po
(гПа)
Тmin
(С)
Tmax
(С)
R
(мм)
R24
(мм)
S
(см)
06 9.01 З 7-11
{11}
20 км 8/0
[Ac trans Ci fib]
-9.8 -12.7 79 -19 -19 1010.7 1009.6
12 9.01 З 9-11
{13}
10 км позёмок {ливн. осадки} 6/3 600 м
[Sc Ac trans Ci fib]
-8.0 -8.5 96 -18 -18 1012.2 1011.1
18 9.01 СЗ 3 10 км {метель} 8/0
[Ac trans]
-13.0 -13.9 93 -19 -19 1013.0 1012.0
00 10.01 З 8-10
{12}
4000 м слаб. ливневой снег {метель} 9/9 300 м
[Cb cap]
-6.2 -6.3 99 -15 -15 1012.9 1011.9
03 10.01 З 5
{12}
10 км в посл. час ливневой снег {метель} 3/0
[Ac trans Ci fib]
-11.8 -12.5 95 -20 -20 1012.4 1011.3 -17.5 1 11
06 10.01 З 4 10 км {ливн. осадки, метель} 1/1 600 м
[Sc]
-11.2 -11.8 95 -18 -18 1012.8 1011.8
12 10.01 ЮЗ 7-10
{10}
10 км позёмок 3/0
[Ci fib]
-7.5 -8.8 90 -16 -16 1011.7 1010.7
18 10.01 Ю 11-16
{17}
4000 м метель {ливн. осадки} 9/9 300 м
[St]
-8.6 -9.2 95 -20 -20 1005.3 1004.3
00 11.01 Ю 14-20
{21}
1000 м слаб. ливневой снег {метель} 10/10 300 м
[Cb cap]
-7.3 -7.8 96 -19 -19 996.7 995.7
03 11.01 Ю 16-21
{21}
2000 м метель {ливн. осадки} 9/9 300 м
[Sc]
-6.7 -8.7 86 -19 -19 991.8 990.8 -8.6 0.4 8
06 11.01 Ю 18-22
{23}
2000 м слаб. ливневой снег {метель} 10/10 300 м
[Cb cap]
-8.2 -9.2 92 -21 -21 987.9 986.9
12 11.01 Ю 16-21
{22}
500 м сильная метель {ливн. осадки} ?/? -6.9 -7.7 94 -19 -19 983.2 982.2
18 11.01 Ю 14-17
{21}
2000 м слаб. ливневой снег {метель} 10/10 300 м
[Cb cap]
-6.4 -6.9 96 -18 -18 980.6 979.6
00 12.01 Ю 10-13
{16}
4000 м слаб. ливневой снег {метель} 10/10 300 м
[Cb cap]
-5.7 -6.6 93 -16 -16 978.8 977.8
03 12.01 Ю 8-12
{14}
4000 м слаб. ливневой снег {метель} 10/10 300 м
[Cb cap]
-4.9 -6.2 91 -14 -14 978.4 977.4 -6.7 0.6 7
06 12.01 Ю 9-12
{14}
2000 м слаб. ливневой снег {метель} 10/10 300 м
[Cb cap]
-5.1 -5.7 96 -15 -15 978.9 977.9
12 12.01 Ю 9-12
{13}
4000 м слаб. ливневой снег {метель} 10/10 300 м
[Cb cap]
-5.6 -7.3 88 -15 -15 979.9 978.9
18 12.01 Ю 9-10
{12}
10 км позёмок {ливн. осадки} 10/10 450 м
[Sc]
-6.2 -8.1 86 -16 -16 979.6 978.6
00 13.01 Ю 7
{11}
4000 м слаб. ливневой снег {метель} 10/10 300 м
[Cb cap]
-7.1 -8.2 92 -16 -16 978.6 977.6
03 13.01 Ю 5 4000 м слаб. ливневой снег {метель} 10/10 300 м
[Cb cap]
-6.7 -7.9 91 -14 -14 977.9 976.9 -7.3 0.4 7
06 13.01 Ю 7
{10}
4000 м слаб. ливневой снег {метель} 10/10 300 м
[Cb cap]
-6.1 -7.7 88 -15 -15 977.8 976.8
12 13.01 Ю 7 4000 м слаб. ливневой снег {метель} 10/10 300 м
[Cb cap]
-6.5 -7.4 93 -15 -15 977.3 976.3
18 13.01 ЮВ 5 4000 м слаб. ливневой снег {метель} 10/10 300 м
[Cb cap]
-6.5 -7.7 91 -14 -14 977.6 976.6
00 14.01 Ю 5 4000 м слаб. ливневой снег {метель} 10/10 300 м
[Cb cap]
-6.8 -7.9 92 -14 -14 979.0 978.0
03 14.01 ЮВ 4 4000 м слаб. ливневой снег 10/10 300 м
[Cb cap]
-7.2 -8.9 88 -14 -14 979.9 978.9 -7.2 0.3 7
06 14.01 ЮВ 2 10 км {ливн. осадки} 10/10 480 м
[Sc]
-6.8 -8.3 89 -11 -11 981.0 980.0 -7.2
09 14.01 ЮВ 2 10 км {ливн. осадки} 10/10 480 м
[Sc]
-6.8 -8.3 89 -11 -11 981.0 980.0 -7.2
12 14.01 СВ 3 4000 м слаб. ливневой снег 10/10 300 м
[Cb cap]
-7.1 -7.9 94 -13 -13 984.2 983.2
18 14.01 С 3 10 км {ливн. осадки} 9/5 600 м
[Sc Ac trans]
-11.4 -12.2 94 -17 -17 987.2 986.2
00 15.01 С 2 4000 м слаб. ливневой снег 9/8 300 м
[Cb cap Ac trans]
-12.0 -12.8 94 -17 -17 990.4 989.3
03 15.01 С 2 10 км {ливн. осадки} 9/5 600 м
[Sc Ac trans]
-10.5 -11.2 95 -15 -15 991.3 990.2 -15.3 0.2 7
06 15.01 штиль 0 10 км {ливн. осадки} 8/8 600 м
[Sc]
-10.7 -11.4 95 -11 -11 992.2 991.2
09 15.01 штиль 0 10 км {ливн. осадки} 8/8 600 м
[Sc]
-10.7 -11.4 95 -11 -11 992.2 991.2
12 15.01 С 2 2000 м дымка {туман} 9/9 300 м
[St]
-13.9 -14.8 93 -19 -19 993.8 992.7
15 15.01 С 2 2000 м дымка {туман} 9/9 300 м
[St]
-13.9 -14.8 93 -19 -19 993.8 992.7
18 15.01 штиль 0 500 м переохл. туман 4/0
[Ac trans]
-16.2 -17.4 90 -16 -16 995.1 994.1
00 16.01 З 1 10 км {туман} 9/9 700 м
[Sc]
-9.1 -9.6 96 -12 -12 996.9 995.9
03 16.01 СЗ 1 10 км 6/6 600 м
[Sc]
-10.7 -11.4 95 -13 -13 997.6 996.6 -16.3 7

 

Местоположение метеостанции Бугрино (Ненецкий АО, Россия): широта 68.80 долгота 49.33 высота над уровнем моря 7 м.

В архиве по умолчанию представлена погода в Бугрино за последнюю неделю. Архивные данные за месяц целиком и за предыдущие месяцы, начиная с января 2011 года, Вы можете получить, выбрав интересующий диапазон дат из раскрывающегося списка и нажав кнопку "Ввод!".


*Определитесь, кто Вы:
робот инопланетянин человек

Внимание! Время в таблицах - всемирное. Для получения местного времени необходимо прибавить поправку, которая равна 3 ч.

Смотрите также архив погоды в соседних городах и на ближайших метеорологических станциях:

Погода на Колгуевом Острове (Ненецкий АО, Россия) (82 км)
Погода в Сенгейском Шаре (Ненецкий АО, Россия) (86 км)
Погода в Индиге (Ненецкий АО, Россия) (127 км)
Погода на Мысе Микулкин (Ненецкий АО, Россия) (156 км)
Погода в Ходоварихе (Ненецкий АО, Россия) (178 км)
Погода в Нарьян-Маре (Ненецкий АО, Россия) (200 км)
Погода в Коткино (Ненецкий АО, Россия) (211 км)
Погода в Шойне (Ненецкий АО, Россия) (235 км)
Погода в Нижней Пеше (Ненецкий АО, Россия) (237 км)
Погода в Канином Носе (Ненецкий АО, Россия) (244 км)

Пояснения к столбцам:

Ветер - указаны скорость ветра в м/с - средняя за 10 мин, порывы в срок и между сроками (в фигурных скобках) и направление, откуда дует ветер: С - северный, СВ - северо-восточный, В - восточный, ЮВ - юго-восточный, Ю - южный, ЮЗ - юго-западный, З - западный, СЗ - северо-западный.
Видимость - горизонтальная дальность видимости в метрах или километрах. При видимости от 1 до 10 км при отсутствии осадков обычно наблюдается дымка, при ухудшении видимости до 1 км и менее - туман. В сухую погоду видимость может ухудшаться дымом, пылью или мглою.
Явления - указаны атмосферные явления, наблюдавшиеся в срок или в последний час перед сроком; фигурными скобками обозначены явления, наблюдавшиеся между сроками (за 1-3 часа до срока); квадратными скобками обозначены град или гололедные отложения с указанием их диаметра в мм.
Облачность - указаны через наклонную черту общая и нижняя облачность в баллах и высота нижней границы облаков в метрах; квадратными скобками обозначены формы облаков: Ci - перистые, Cs - перисто-слоистые, Cc - перисто-кучевые, Ac - высококучевые, As - высокослоистые, Sc - слоисто-кучевые, Ns - слоисто-дождевые, Cu - кучевые, Cb - кучево-дождевые. Подробнее классификацию облаков см. в Атласе облаков (PDF).
T - Температура воздуха - температура, измеренная на высоте 2 м над землей.
Td - Температура точки росы - температура, при понижении до которой содержащийся в воздухе водяной пар достигнет насыщения.
f - Относительная влажность воздуха - влажноcть воздуха, измеренная на высоте 2 м над землей.
Te - Эффективная температура - температура, которую ощущает одетый по сезону человек в тени. Характеристика душности погоды. При расчете учитывается влияние влажности воздуха и скорости ветра на теплоощущения человека.
Tes - Эффективная температура на солнце - температура, которую ощущает человек, с поправкой на солнечный нагрев. Характеристика знойности погоды. Зависит от высоты солнца над горизонтом, облачности и скорости ветра. Ночью, в пасмурную погоду, а также при ветре 12 м/с и более поправка равна нулю.
P - Атмосферное давление - приведенное к уровню моря атмосферное давление.
Po - Атмосферное давление - измеренное на уровне метеостанции атмосферное давление.
Tmin - Минимальная температура - минимум температуры воздуха на высоте 2 м над землей.
Tmax - Максимальная температура - максимум температуры воздуха на высоте 2 м над землей.
R - Количество осадков - Количество выпавших осадков за период времени, мм. При наведении курсора мыши на число - период времени, за который выпало указанное количество осадков.
R24 - Количество осадков - Количество выпавших осадков за 24 часа, мм.
S - Снежный покров - Высота снежного покрова, см. При наведении курсора мыши на число - состояние снежного покрова и степень покрытия местности в баллах.